Regional Weather Roundup
Issued by NWS

Home | Current Version | Previous Version | Text Only | Print | Product List | Glossary Off
Versions: 1 2 3 4 5 6 7 8 9 10 11 12 13 14 15 16 17 18 19 20 21 22 23 24 25 26 27 28 29 30 31 32 33 34 35 36 37 38 39 40 41 42 43 44 45 46 47 48 49 50

000
ASUS43 KDTX 222210
RWRMI
MICHIGAN HOURLY REGIONAL WEATHER ROUNDUP
NATIONAL WEATHER SERVICE DETROIT/PONTIAC MI
600 PM EDT TUE AUG 22 2017

NOTE: "FAIR" INDICATES FEW OR NO CLOUDS BELOW 12,000 FEET WITH NO
SIGNIFICANT WEATHER AND/OR OBSTRUCTION TO VISIBILITY.

MIZ047>049-052>055-059>063-066>070-074>076-081>083-222300-
SOUTHEAST LOWER MICHIGAN

CITY           SKY/WX    TMP DP  RH WIND       PRES   REMARKS
ADRIAN         MOSUNNY   77  61  57 NW14G23   29.83R
ALMA           MOSUNNY   72  50  46 MISG      29.83R
ANN ARBOR      SUNNY     79  60  52 W18G29    29.80R
BAD AXE        SUNNY     72  52  49 NW21G29   29.78R
CARO           PTSUNNY   73  56  56 NW15G21   29.78R
DETROIT CITY   SUNNY     80  59  48 W16G24    29.76R
DETROIT        MOSUNNY   80  61  52 W18G25    29.79R
FLINT          MOSUNNY   74  65  73 NW14      29.79S
GROSSE ILE     SUNNY     80  61  53 NW20G25   29.77R
HILLSDALE      MOSUNNY   75  61  60 W13       29.84S
HOWELL         PTSUNNY   73  60  62 NW13G23   29.80R

CITY           SKY/WX    TMP DP  RH WIND       PRES   REMARKS
JACKSON        MOSUNNY   76  57  51 W12G25    29.83R
LAMBERTVILLE   MOSUNNY   78  62  57 NW12G18   29.81R
LANSING        SUNNY     76  56  49 W20G28    29.83R
LAPEER         PTSUNNY   70  64  80 W6        29.79R
MASON          PTSUNNY   75  59  56 W16G25    29.82R
MONROE         MOSUNNY   78  62  58 W16G25    29.79R
MT. CLEMENS    MOSUNNY   79  62  55 W18G24    29.74R
PONTIAC        PTSUNNY   73  61  65 NW17G36   29.78R
PORT HOPE        N/A     72  56  57 NW17G29   29.75R
PORT HURON     CLOUDY    73  59  60 NW10G18   29.77R
TRI CITIES     SUNNY     74  56  53 NW21G28   29.81R
MIDLAND        FAIR      71  54  53 NW12G23   29.80R
TROY           MOSUNNY   79  57  46 W16G28    29.79R
SAGINAW HB     MOSUNNY   73  55  53 NW21      29.79R
$$
MIZ043>046-050>051-056>058-064>065-071>073-077>080-222300-
SOUTHWEST LOWER MICHIGAN

CITY           SKY/WX    TMP DP  RH WIND       PRES   REMARKS
BATTLE CREEK   MOSUNNY   72  58  61 NW17G30   29.88R
BENTON HARBOR  SUNNY     74  58  57 NW8G18    29.91R
BIG RAPIDS     MOSUNNY   70  50  48 NW14G24   29.86R
COLDWATER      SUNNY     76  56  50 NW10G23   29.86R
FREMONT        FAIR      71  53  53 NW13G20   29.87R
HOLLAND        MOSUNNY   73  57  57 NW8G22    29.90R
GRAND RAPIDS   MOSUNNY   72  54  53 NW20G30   29.86R
IONIA          FAIR      73  53  48 NW14G25   29.84R
KALAMAZOO      MOSUNNY   75  55  49 NW21G29   29.88R
LUDINGTON      SUNNY     71  55  55 NW10G20   29.87R
MARSHALL       CLOUDY    74  59  61 W15G22    29.85R
MOUNT PLEASANT MOSUNNY   74  52  46 W14G20    29.82S
MUSKEGON       MOSUNNY   74  55  51 NW14G24   29.88S
SOUTH HAVEN    SUNNY     73  61  65 N15G24    29.90R
$$
MIZ016>042-222300-
NORTHERN LOWER MICHIGAN

CITY           SKY/WX    TMP DP  RH WIND       PRES   REMARKS
ALPENA         SUNNY     71  53  52 W13G20    29.75R
BEAVER ISLAND  SUNNY     70  51  50 W12G22    29.80R
BELLAIRE       SUNNY     69  51  52 W9G24     29.81S
CADILLAC       PTSUNNY   68  50  51 NW12      29.85R
CHARLEVOIX     SUNNY     69  56  62 W12G18    29.83R
FRANKFORT      MOSUNNY   73  55  53 NW13G18   29.85S
GAYLORD        CLOUDY    64  52  64 VRB7      29.81R
GRAYLING       MOSUNNY   68  51  54 W17G25    29.82S
HARBOR SPRINGS MOSUNNY   68  49  49 W12G17    29.78S
HOUGHTON LAKE  PTSUNNY   69  51  52 W14G28    29.82S
MANISTEE       SUNNY     73  55  53 W16G23    29.85R
OSCODA         SUNNY     72  50  45 NW18G30   29.75R
PELLSTON       SUNNY     69  52  54 W16G23    29.77S
ROGERS CITY    MOSUNNY   69  49  49 NW16G25   29.75S
TRAVERSE CITY  PTSUNNY   73  50  44 W15G24    29.82R
$$
MIZ007>008-015-222300-
EASTERN UPPER MICHIGAN

CITY           SKY/WX    TMP DP  RH WIND       PRES   REMARKS
KINROSS        MOSUNNY   65  51  60 NW23      29.74R
MACKINAC ISLAN MOSUNNY   67  50  53 W21G28    29.75S
NEWBERRY       CLOUDY    63  51  65 NW18G24   29.79R
S. S. MARIE    MOSUNNY   63  51  65 W21G33    29.74R
MUNISING         N/A     67  55  65 NW10      29.81R
$$
MIZ004>006-011>014-085-222300-
CENTRAL UPPER MICHIGAN

CITY           SKY/WX    TMP DP  RH WIND       PRES   REMARKS
MANISTIQUE     MOSUNNY   68  43  40 NW16      29.80R
ESCANABA       SUNNY     70  50  49 W14G24    29.83R
MENOMINEE      LGT RAIN  69  50  50 N10G26    29.87R
SAWYER-GWINN   MOSUNNY   64  50  59 NW16G23   29.84R
$$
MIZ001>003-009>011-084-222300-
WESTERN UPPER MICHIGAN

CITY           SKY/WX    TMP DP  RH WIND       PRES   REMARKS
IRON MOUNTAIN  PTSUNNY   70  45  40 NW16G25   29.85S
HOUGHTON       SUNNY     67  52  58 W23G31    29.82R
COPPER HARBOR    N/A     66  52  60 N15G24    29.78R
IRONWOOD       CLOUDY    65  52  62 W10G26    29.92R
$$

ABBREVIATIONS USED IN REMARKS
   TC - TEMPERATURE IN CELSIUS
  WCI - WIND CHILL INDEX
   HX - HEAT INDEX
  VSB - VISIBILITY





USA.gov is the U.S. government's official web portal to all federal, state and local government web resources and services.